Terug naar catalogus

ARIANE 1 DEB

ActiefSSO
NORAD 39107·DEBRIS·🇫🇷 France

Gelanceerd Feb 22, 1986 vanaf Guiana Space Centre

Loading…

Volgende Passages (komende 24 uur)

TLE

VersSource: Space-Track

Epoch: Sep 14, 2026, 07:43 UTC

1 39107U 86019VV  26257.32180682  .00000600  00000-0  31824-3 0  9993
2 39107  98.6458 277.8134 0150530 112.4888 249.2300 14.11390408677304

Volg ARIANE 1 DEB in realtime met AllMySat

Download on the App Store